Location: Civís
(42.4648°N, 1.4232°E)
Time: 17:08:22
(UTC+00:00)

Cosmos 1441 Rocket - Pass Details

Date: 21 November 2025
Orbit: 425 x 449 km, 81.1° (Epoch: 04 December)

Event Time Altitude Azimuth Distance (km) Brightness Sun altitude
Rises 04:21:29 0° 148° (SSE) 2,383 7.0 -27.6°
Reaches altitude 10° 04:24:17 10° 121° (ESE) 1,519 6.3 -27.1°
Maximum altitude 04:26:01 14° 89° (E) 1,314 6.2 -26.8°
Drops below altitude 10° 04:27:46 10° 57° (ENE) 1,524 6.2 -26.5°
Sets 04:30:34 0° 31° (NNE) 2,395 6.9 -26.0°
